Millbury, OH

6:11 AM EST on December 03, 2016 (GMT -0500)
Metcalf

Weather History for KTDZ - August, 2013

Change the Weather History Date:

Monday, August 26, 2013

  Actual Average (KTOL) Record (KTOL)
Temperature  
Mean Temperature 76 °F 71 °F  
Max Temperature 90 °F 81 °F 97 °F (1993)
Min Temperature 64 °F 60 °F 45 °F (1964)
Degree Days  
Heating Degree Days 0 1  
Month to date heating degree days 2  
Since 1 June heating degree days 40  
Since 1 July heating degree days 5  
Cooling Degree Days 12 6  
Month to date cooling degree days 187  
Year to date cooling degree days 675  
Since 1 June cooling degree days 622  
Growing Degree Days 26 (Base 50)    
Moisture  
Dew Point 63 °F    
Average Humidity 63    
Maximum Humidity 81    
Minimum Humidity 43    
Precipitation  
Precipitation 0.01 in 0.10 in 1.95 in (1986)
Month to date precipitation 2.66  
Year to date precipitation 22.83  
Snow  
Snow 0.00 in 0.00 in - ()
Month to date snowfall 0.0  
Since 1 June snowfall 0.0  
Since 1 July snowfall 0.0  
Snow Depth -    
Sea Level Pressure  
Sea Level Pressure 30.10 in    
Wind  
Wind Speed 9 mph (WSW)    
Max Wind Speed 18 mph    
Max Gust Speed 24 mph    
Visibility 10 miles    
Events      
T = Trace of Precipitation, MM = Missing Value Source: NWS Daily Summary

Daily Weather History Graph

Daily Weather History Graph

Search for Another Location

Airport or City:

Trip Planner

Search our weather history database for the weather conditions in past years. The results will help you decide how hot, cold, wet, or windy it might be!

Date:

Astronomy

Aug. 26, 2013 Rise Set
Actual Time 6:54 AM EDT 8:16 PM EDT
Civil Twilight 6:25 AM EDT 8:45 PM EDT
Nautical Twilight 5:50 AM EDT 9:19 PM EDT
Astronomical Twilight 5:13 AM EDT 9:56 PM EDT
Moon 11:20 PM EDT (8/26) 12:59 PM EDT (8/26)
Length of Visible Light 14h 19m
Length of Day
13h 22m
Waning Gibbous, 67% of the Moon is Illuminated
Aug 26
Waning Gibbous
Aug 28
Last Quarter
Sep 5
New
Sep 12
First Quarter
Sep 19
Full

Hourly Weather History & Observations

Time (EDT) Temp. Heat Index Dew Point Humidity Pressure Visibility Wind Dir Wind Speed Gust Speed Precip Events Conditions
12:53 AM 69.1 °F - 60.1 °F 73% 30.19 in 10.0 mi SSW 8.1 mph - N/A   Clear
1:53 AM 69.1 °F - 60.1 °F 73% 30.18 in 10.0 mi SW 4.6 mph - N/A   Clear
2:53 AM 68.0 °F - 60.1 °F 76% 30.16 in 10.0 mi SW 5.8 mph - N/A   Clear
3:53 AM 68.0 °F - 60.1 °F 76% 30.15 in 10.0 mi SSW 6.9 mph - N/A   Clear
4:53 AM 66.9 °F - 59.0 °F 76% 30.17 in 10.0 mi WSW 5.8 mph - N/A   Clear
5:53 AM 66.0 °F - 59.0 °F 78% 30.17 in 10.0 mi SW 6.9 mph - N/A   Clear
6:53 AM 64.9 °F - 59.0 °F 81% 30.17 in 10.0 mi SW 5.8 mph - N/A   Clear
7:53 AM 64.9 °F - 59.0 °F 81% 30.19 in 9.0 mi SW 8.1 mph - N/A   Clear
8:53 AM 70.0 °F - 60.1 °F 71% 30.18 in 10.0 mi WSW 11.5 mph - N/A   Clear
9:53 AM 75.9 °F - 61.0 °F 60% 30.16 in 10.0 mi WSW 11.5 mph - N/A   Clear
10:53 AM 81.0 °F 81.9 °F 62.1 °F 52% 30.17 in 10.0 mi West 12.7 mph - N/A   Clear
11:53 AM 82.9 °F 83.7 °F 62.1 °F 49% 30.14 in 10.0 mi West 13.8 mph 20.7 mph N/A   Clear
12:53 PM 84.0 °F 84.9 °F 63.0 °F 49% 30.13 in 10.0 mi West 15.0 mph - N/A   Clear
1:53 PM 86.0 °F 87.3 °F 64.0 °F 48% 30.09 in 10.0 mi WSW 13.8 mph - N/A   Clear
2:53 PM 89.1 °F 90.3 °F 64.0 °F 43% 30.06 in 10.0 mi WSW 13.8 mph 20.7 mph N/A   Clear
3:53 PM 89.1 °F 91.0 °F 64.9 °F 45% 30.04 in 10.0 mi West 18.4 mph - N/A   Clear
4:53 PM 88.0 °F 89.3 °F 64.0 °F 45% 30.02 in 10.0 mi WSW 13.8 mph 24.2 mph N/A   Clear
5:53 PM 87.1 °F 88.9 °F 64.9 °F 48% 30.02 in 10.0 mi WSW 17.3 mph 24.2 mph N/A   Clear
6:53 PM 86.0 °F 88.8 °F 66.9 °F 53% 30.02 in 10.0 mi WSW 13.8 mph - N/A   Clear
7:53 PM 82.9 °F 85.8 °F 68.0 °F 60% 30.02 in 10.0 mi SW 10.4 mph - N/A   Scattered Clouds
8:53 PM 81.0 °F 83.8 °F 68.0 °F 65% 30.02 in 10.0 mi WSW 11.5 mph - N/A   Partly Cloudy
9:53 PM 79.0 °F - 68.0 °F 69% 30.01 in 10.0 mi WSW 5.8 mph - N/A   Overcast
10:53 PM 78.1 °F - 68.0 °F 71% 30.01 in 10.0 mi SW 5.8 mph - N/A   Mostly Cloudy
11:53 PM 75.9 °F - 69.1 °F 79% 30.01 in 9.0 mi SW 5.8 mph - 0.01 in   Mostly Cloudy